Presure
144 174 160 152 158 152 165 166 169 177 152 169 169 184 171 206 166 184 168 176 189 197 170 204 178 196 192 173 200 195 208 206 205 205 210 202 213 205 202 206 205 207 202
175 159 171 165 178 169 152 153 199 173 161 142 184 174 213 158 187 156 194 198 196 193 185 206 186 200 194 187 190 183 210 203 204 203 207 203 208 208 202 198 196 201 204
175 175 182 179 175 149 181 167 181 175 174 175 179 167 163 157 199 182 151 180 193 195 200 194 196 162 192 184 188 192 207 199 201 199 201 208 200 208 206 197 195 198 199
200 182 180 176 181 180 184 182 185 190 182 178 137 185 160 180 181 192 208 211 189 194 207 201 201 153 192 201 194 199 205 194 200 200 200 201 204 211 202 198 203 192 200
185 215 188 180 187 204 206 184 183 186 204 220 183 154 134 188 242 243 182 207 184 201 154 188 201 199 191 182 194 205 195 196 198 201 194 201 194 202 207 205 199 204 196
232 219 213 188 215 221 203 212 216 215 194 225 219 196 187 211 202 221 220 188 204 166 189 199 204 194 194 202 198 198 197 203 199 200 189 192 196 201 202 196 198 202 194
225 212 204 202 219 195 209 220 212 201 199 210 213 236 210 190 206 208 191 224 205 205 205 199 202 208 203 200 192 205 190 208 190 201 193 192 193 191 194 195 197 198 196
223 218 212 198 206 200 199 195 207 193 203 217 216 206 218 205 216 222 223 221 215 220 221 207 208 192 188 198 189 209 191 202 196 192 196 191 195 190 191 191 200 194 193
231 222 213 224 223 225 214 195 216 214 218 210 213 214 206 216 221 222 223 217 205 215 193 203 209 200 202 194 195 200 185 196 192 196 194 197 193 192 183 195 192 194 195
244 229 227 232 225 224 222 222 221 214 207 206 206 216 205 206 215 215 201 210 205 204 194 209 213 197 203 196 191 202 197 192 209 198 196 198 196 196 199 191 187 205 204
243 234 226 232 235 226 216 222 220 213 213 209 208 215 213 217 207 223 208 219 196 192 189 199 206 198 192 194 193 199 213 190 199 205 192 201 198 193 195 195 194 193 205
237 234 229 225 227 228 225 217 217 218 244 218 247 236 215 225 222 235 221 220 195 197 180 194 205 200 193 193 215 191 202 200 192 199 200 196 200 194 193 193 195 197 200
261 255 254 232 224 225 223 229 247 233 224 226 231 233 231 233 223 221 229 214 209 206 214 207 210 209 202 201 198 200 199 202 198 197 200 200 204 208 201 203 206 206 206
254 246 238 236 236 242 244 236 225 219 228 236 236 232 231 231 224 225 226 217 216 214 206 212 235 222 207 207 220 214 204 212 202 203 200 210 210 213 207 203 196 197 206
244 237 226 221 222 228 227 223 223 221 233 232 224 220 224 230 231 231 217 223 232 215 217 217 219 223 224 224 219 214 215 214 215 213 213 207 208 210 209 207 200 201 206
234 238 242 248 244 229 225 223 218 220 220 213 217 224 227 224 219 225 231 228 225 225 225 222 224 219 215 216 216 216 214 213 212 209 207 210 213 212 211 211 209 209 211
224 225 235 228 229 238 228 226 220 217 218 220 211 217 215 219 221 219 221 216 215 212 211 210 206 208 214 214 210 207 206 205 206 209 213 213 211 211 213 214 208 208 213
221 224 226 227 224 222 221 220 217 215 212 220 221 223 220 219 220 222 222 225 225 222 218 215 214 215 215 217 218 216 217 218 218 219 217 215 214 217 221 223 224 227 229
223 225 227 224 226 220 216 215 216 216 216 214 215 212 212 214 213 213 212 211 211 211 211 211 211 211 211 214 218 219 218 216 213 215 220 223 222 225 223 217 217 209 207
227 223 225 226 221 222 216 209 209 211 205 204 206 208 209 208 206 207 209 208 207 207 208 209 209 207 213 218 220 264 218 216 267 270 267 224 266 222 221 262 265 227 242
226 226 221 219 224 224 227 221 212 213 206 208 212 211 209 208 207 208 204 201 204 211 214 215 216 218 218 211 211 218 222 226 239 241 238 245 246 247 248 248 247 246 246
220 222 225 224 217 217 219 221 219 222 220 216 212 212 211 208 206 210 208 210 217 213 210 209 208 210 216 217 232 227 224 208 221 226 214 215 215 215 215 218 220 224 222
225 220 220 221 224 222 216 218 218 220 222 222 223 219 217 220 225 223 222 223 222 219 225 223 226 225 227 228 225 227 227 229 229 232 232 235 236 239 241 241 245 246 249
231 226 223 217 215 217 220 222 220 222 220 217 215 215 216 217 216 218 218 218 217 219 227 225 231 229 219 225 228 231 235 237 237 236 238 242 247 257 269 271 303 318 328
229 227 224 221 222 218 217 218 219 219 218 216 217 219 220 220 220 220 222 224 227 224 223 224 224 232 235 235 232 240 248 251 258 263 276 291 292 305 321 354 357 335 321
227 226 226 224 219 218 219 218 216 217 217 215 215 215 216 217 217 216 218 219 218 224 228 228 226 222 226 242 251 251 256 270 285 286 300 316 358 336 308 295 301 326 364
Wind_Speed
87 122 91 85 90 92 97 91 92 102 80 88 86 100 76 81 74 91 67 86 94 79 75 77 72 72 65 67 60 53 54 51 56 54 48 53 55 59 61 63 64 64 68
119 96 117 106 121 105 88 89 118 93 79 72 107 90 88 69 85 74 90 87 86 84 81 75 67 70 65 65 59 58 53 54 56 57 51 52 54 58 60 62 63 64 69
125 124 125 119 118 93 124 97 114 102 105 104 107 81 73 85 76 97 75 92 86 74 75 71 69 75 65 66 66 62 55 54 58 59 57 52 57 57 60 63 63 64 68
134 128 125 120 123 120 120 119 116 121 116 106 74 100 74 97 96 99 74 76 72 77 72 72 70 78 68 68 69 66 60 58 58 62 59 56 58 57 61 62 62 65 68
119 122 133 123 123 132 127 114 113 116 119 93 107 84 76 100 69 72 85 73 80 77 75 73 72 74 72 69 70 69 65 62 61 61 64 59 59 61 61 62 62 63 69
95 106 116 122 107 97 121 116 104 104 114 87 96 100 97 93 89 76 78 77 78 71 78 78 78 75 75 77 71 69 70 66 65 62 67 66 63 62 64 67 65 63 70
103 114 119 119 104 112 107 90 104 113 111 106 86 75 94 93 87 87 81 76 78 77 77 77 77 85 79 75 72 74 73 70 72 69 69 70 70 70 70 69 69 68 71
104 107 114 113 116 115 114 110 96 112 108 91 88 97 84 93 84 80 80 78 76 77 79 76 80 74 73 75 74 77 75 76 75 77 75 76 75 74 75 75 71 74 77
97 102 112 98 97 92 100 112 95 96 89 93 89 87 91 83 78 75 74 75 75 74 71 74 81 77 80 77 77 79 80 77 81 83 81 82 82 80 80 80 80 80 80
87 94 94 90 93 91 91 89 88 93 96 95 93 84 93 91 81 78 81 77 77 74 74 77 83 76 82 79 79 82 82 81 84 85 85 85 89 89 86 85 84 83 83
84 86 89 85 83 87 93 88 89 93 91 94 93 86 85 81 86 76 80 76 79 78 76 77 80 79 80 81 81 83 86 84 85 88 88 90 92 92 92 92 91 88 89
82 82 84 85 83 83 85 88 88 86 76 86 72 74 83 78 80 76 77 78 82 81 82 81 82 83 83 84 88 85 87 88 88 89 91 93 95 96 97 98 98 97 97
70 71 71 79 82 80 81 80 74 76 78 78 75 75 75 75 77 79 79 82 83 84 83 83 83 85 85 86 87 88 89 92 92 93 95 96 98 101 102 103 104 103 103
69 70 73 73 73 70 68 71 74 77 73 71 71 73 73 74 76 78 79 81 81 83 83 84 86 87 87 88 92 92 94 96 98 99 99 102 101 102 104 104 102 103 105
70 71 73 73 72 71 72 73 72 72 69 70 72 73 73 72 72 73 76 77 78 82 83 85 85 86 88 89 90 92 94 96 97 99 101 102 103 104 105 106 107 108 110
68 66 67 66 66 69 70 71 72 72 72 73 72 71 70 71 73 72 73 75 78 79 80 83 85 88 89 90 92 93 95 97 98 99 101 103 105 106 108 109 111 112 113
75 70 65 64 64 64 68 70 72 72 72 73 73 72 73 74 74 75 75 76 78 80 83 84 87 89 90 92 94 95 99 100 102 104 107 108 110 111 113 114 114 116 118
79 75 71 67 68 68 68 68 70 71 73 70 70 69 70 71 71 71 73 74 77 80 83 86 88 91 93 96 98 99 103 105 107 108 110 113 116 118 119 121 122 122 123
81 80 73 69 68 70 71 71 72 73 72 72 72 73 74 74 74 75 76 77 79 82 83 86 89 91 94 96 98 100 103 105 107 109 111 114 116 119 121 122 124 124 124
79 78 76 71 70 71 74 77 76 76 77 79 78 77 76 77 77 78 80 82 84 86 88 90 92 95 96 97 98 82 101 104 89 91 96 115 105 120 122 115 115 128 127
80 79 78 77 75 75 74 77 80 79 80 80 79 80 80 81 82 83 85 88 89 90 91 93 95 97 99 100 100 101 102 103 98 101 105 105 108 112 114 117 120 123 126
84 81 78 78 79 78 78 77 78 78 78 80 81 82 83 84 85 86 87 89 89 92 94 96 98 99 100 101 96 101 104 109 109 110 116 118 121 123 125 128 131 133 135
86 85 82 80 78 79 81 80 79 79 79 81 81 84 85 85 84 86 88 88 91 94 94 96 96 98 97 99 102 105 107 109 111 114 117 119 121 124 127 129 133 136 140
84 84 83 84 84 82 80 79 80 79 81 84 84 84 85 86 87 87 88 90 92 92 92 95 96 98 100 104 106 108 112 115 118 122 123 128 131 136 138 139 139 138 139
84 84 83 82 81 83 83 82 82 81 83 84 85 84 84 86 87 89 90 90 92 94 96 98 101 105 108 110 112 116 119 122 125 129 129 129 130 130 131 125 121 123 125
86 85 84 84 84 83 83 83 83 83 84 86 86 87 88 89 91 92 93 95 96 99 102 104 106 108 111 114 117 119 122 123 121 122 124 124 113 114 114 115 118 120 115
Wind_Direction
244 264 257 246 253 261 265 263 266 274 259 270 270 279 270 272 268 288 272 286 288 278 275 274 268 278 283 260 283 283 284 276 273 266 262 255 255 254 255 256 257 256 251
257 254 259 263 267 267 261 258 266 264 260 253 281 275 269 248 277 264 278 279 279 277 281 268 279 272 282 275 279 269 275 275 273 268 265 259 257 255 255 255 256 258 259
258 261 260 261 263 257 269 262 269 269 272 272 272 266 261 265 261 276 257 277 277 261 273 265 271 264 278 274 274 279 272 273 270 269 266 265 259 258 254 253 255 258 258
252 256 256 259 261 261 260 263 264 265 267 268 251 270 253 272 274 275 261 268 261 275 262 269 266 266 275 273 275 275 269 268 267 267 267 264 261 262 256 255 256 255 256
251 249 253 257 258 257 259 263 266 266 267 259 268 262 254 272 250 245 271 256 274 269 261 272 265 264 271 268 271 270 268 267 264 264 263 263 261 263 261 258 256 257 256
248 249 249 255 254 254 257 258 258 260 264 257 262 266 269 268 270 261 263 267 265 264 272 264 261 268 268 268 267 266 266 263 264 259 260 262 261 264 261 257 256 259 256
244 245 248 251 249 256 255 253 256 261 263 262 262 257 265 269 268 268 269 252 266 264 262 265 261 258 264 265 265 262 265 260 264 261 259 260 260 259 259 258 258 256 257
242 243 246 250 249 253 255 257 256 263 262 257 258 265 261 268 263 258 257 260 263 256 251 262 258 265 265 264 265 260 265 264 264 264 261 259 259 259 260 260 261 259 258
241 242 245 246 247 248 250 257 253 255 255 259 259 259 262 261 259 258 258 258 264 258 265 262 258 262 261 263 264 262 264 264 264 263 264 263 261 259 258 260 259 258 257
240 242 244 245 246 248 248 249 250 252 255 257 259 257 262 264 261 260 265 261 261 259 263 258 255 260 259 259 262 260 260 263 261 261 263 262 263 263 262 262 261 263 260
239 241 243 244 245 247 249 249 249 252 253 256 258 258 259 259 260 255 262 255 260 261 260 261 257 258 258 260 261 261 259 262 262 260 263 262 263 265 265 265 265 265 267
237 239 241 244 245 246 246 248 249 250 250 254 252 253 257 254 256 253 254 253 260 260 257 261 256 256 258 259 259 262 262 261 263 263 263 264 263 265 266 266 267 267 267
235 235 236 241 243 245 246 248 246 248 250 252 251 250 251 250 252 254 252 255 257 258 256 256 255 254 256 258 260 261 261 261 262 263 264 264 265 264 265 266 267 268 268
235 237 239 239 241 242 244 246 246 248 249 248 249 251 252 252 253 253 253 254 255 256 259 259 258 258 258 259 260 260 260 260 261 262 263 264 265 265 264 266 267 268 268
240 239 240 240 242 243 243 244 245 247 247 248 250 252 253 254 254 255 255 256 255 257 257 258 259 259 260 260 260 261 261 261 262 262 263 264 265 265 265 266 267 268 268
241 240 241 240 240 241 243 244 245 247 249 250 252 254 255 255 256 257 256 256 256 257 258 260 259 259 261 261 262 263 264 265 266 266 266 267 267 267 267 267 268 268 268
237 234 238 238 241 242 242 243 245 247 249 251 252 253 254 255 255 255 256 256 256 257 257 258 259 261 262 262 263 264 265 266 267 268 269 269 269 270 270 269 269 269 270
239 237 234 233 236 238 241 242 244 246 247 251 252 253 254 255 255 256 257 258 259 260 261 261 262 263 264 265 266 266 267 267 268 268 268 268 269 269 270 270 271 271 271
236 238 237 234 235 236 239 241 243 245 247 248 250 250 251 252 254 256 257 258 259 260 261 262 263 264 265 266 267 267 267 268 268 269 269 269 269 270 270 269 269 270 272
233 237 240 237 236 237 237 239 242 244 244 246 248 250 251 253 254 255 257 258 259 261 262 263 264 264 266 267 268 270 268 269 272 272 272 271 272 272 272 272 271 272 272
231 233 236 239 238 237 238 239 241 243 246 249 250 251 253 254 255 256 257 259 261 262 263 264 266 267 268 269 270 271 271 271 271 271 271 271 271 272 272 272 271 271 271
231 233 234 236 239 241 241 242 242 244 245 247 249 251 253 255 257 258 260 262 262 263 265 266 267 269 269 269 271 270 271 272 271 270 271 272 272 273 274 274 275 275 275
228 232 235 237 238 240 244 246 247 249 250 251 251 252 253 255 257 258 259 261 262 262 265 265 268 269 272 272 272 273 274 275 276 276 275 277 278 278 279 279 280 281 281
227 230 233 237 240 242 244 246 248 251 253 254 255 257 259 261 262 264 266 266 267 270 275 275 279 279 275 277 279 280 280 280 280 280 281 281 281 280 280 281 282 283 283
228 230 233 236 238 242 245 248 250 252 254 257 259 262 264 266 267 269 270 273 274 276 278 279 280 281 280 281 281 281 280 281 281 282 284 286 286 287 287 287 286 286 285
228 232 233 235 238 241 244 247 250 253 256 259 261 264 266 267 269 271 273 275 276 277 278 278 279 282 282 282 284 285 286 286 288 289 290 290 289 288 288 288 287 288 287